START_TIME,STEP,MOV.,M29,t_acc.,H22,t_acc.,H26,t_acc.,H30,t_acc.
1979-07-30 18:00:30.920 ,1,1,0.,24.0,0.,24.0,0.,24.0,0.,24.0
1979-07-30 18:00:54.920 ,2,1,0.,24.0,0.,24.0,0.,24.0,0.,24.0
1979-07-30 18:01:18.920 ,6,1,0.,24.0,0.,24.0,0.,24.0,0.,24.0
1979-07-30 18:01:42.920 ,5,1,0.,24.0,0.,24.0,0.,24.0,0.,24.0
1979-07-30 18:02:06.920 ,1,1,0.,24.0,0.,24.0,0.,24.0,0.,24.0
1979-07-30 18:02:30.920 ,2,1,0.,24.0,0.,24.0,0.,24.0,0.,24.0
1979-07-30 18:02:54.920 ,6,1,0.,24.0,0.,24.0,0.,24.0,0.,24.0
1979-07-30 18:03:18.920 ,5,1,0.,24.0,0.,24.0,0.,24.0,0.,24.0
1979-07-30 18:03:42.920 ,1,1,0.,24.0,0.,24.0,0.,24.0,0.,24.0
1979-07-30 18:04:06.920 ,2,1,0.,24.0,0.,24.0,0.,24.0,0.,24.0
1979-07-30 18:04:30.920 ,6,1,0.,24.0,0.,24.0,0.,24.0,0.,24.0
1979-07-30 18:04:54.920 ,5,1,0.,24.0,0.,24.0,0.,24.0,0.,24.0
1979-07-30 18:05:18.920 ,1,1,0.,24.0,0.,24.0,0.,24.0,0.,24.0
1979-07-30 18:05:42.920 ,0,0,0.,24.0,0.,24.0,0.,24.0,0.,24.0
1979-07-30 18:06:06.920 ,0,0,0.,24.0,0.,24.0,0.,24.0,0.,24.0
1979-07-30 18:06:30.920 ,5,1,0.,24.0,0.,24.0,0.,24.0,0.,24.0
1979-07-30 18:06:54.920 ,5,0,0.,24.0,0.,24.0,0.,24.0,0.,24.0
1979-07-30 18:07:18.920 ,4,1,0.,24.0,0.,24.0,0.,24.0,0.,24.0
1979-07-30 18:07:42.920 ,4,0,0.,24.0,0.,24.0,0.,24.0,0.,24.0
1979-07-30 18:08:06.920 ,3,1,0.,24.0,0.,24.0,0.,24.0,0.,24.0
1979-07-30 18:08:30.920 ,3,0,0.,24.0,0.,24.0,0.,24.0,0.,24.0
1979-07-30 18:08:54.920 ,2,1,0.,24.0,0.,24.0,0.,24.0,0.,24.0
1979-07-30 18:09:18.920 ,2,0,0.,24.0,0.,24.0,0.,24.0,0.,24.0
1979-07-30 18:09:42.920 ,1,1,0.,24.0,0.,24.0,0.,24.0,0.,24.0
1979-07-30 18:10:06.920 ,1,0,0.,24.0,0.,24.0,0.,24.0,0.,24.0
1979-07-30 18:10:30.920 ,0,1,0.,24.0,0.,24.0,0.,24.0,0.,24.0
1979-07-30 18:10:54.920 ,0,0,0.,24.0,0.,24.0,0.,24.0,0.,24.0
1979-07-30 18:11:18.920 ,0,1,0.,24.0,0.,24.0,0.,24.0,0.,24.0
1979-07-30 18:11:42.920 ,0,0,0.,24.0,0.,24.0,0.,24.0,0.,24.0
1979-07-30 18:12:06.920 ,1,1,0.,24.0,0.,24.0,0.,24.0,0.,24.0
1979-07-30 18:12:30.920 ,1,0,0.,24.0,0.,24.0,0.,24.0,0.,24.0
1979-07-30 18:12:54.920 ,2,1,1.,24.0,0.,24.0,0.,24.0,0.,24.0
1979-07-30 18:13:18.920 ,2,0,0.,24.0,0.,24.0,0.,24.0,0.,24.0
1979-07-30 18:13:42.920 ,3,1,0.,24.0,0.,24.0,0.,24.0,0.,24.0
1979-07-30 18:14:06.920 ,3,0,0.,24.0,0.,24.0,0.,24.0,0.,24.0
1979-07-30 18:14:30.920 ,4,1,0.,24.0,0.,24.0,0.,24.0,0.,24.0
1979-07-30 18:14:54.920 ,4,0,0.,24.0,0.,24.0,0.,24.0,0.,24.0
1979-07-30 18:15:18.920 ,5,1,0.,24.0,0.,24.0,0.,24.0,0.,24.0
1979-07-30 18:15:42.920 ,5,0,0.,24.0,0.,24.0,0.,24.0,0.,24.0
1979-07-30 18:16:06.920 ,6,1,0.,24.0,0.,24.0,0.,24.0,0.,24.0
1979-07-30 18:16:30.920 ,6,0,0.,24.0,0.,24.0,0.,24.0,0.,24.0
1979-07-30 18:16:54.920 ,7,1,0.,24.0,0.,24.0,0.,24.0,0.,24.0
1979-07-30 18:17:18.920 ,7,0,0.,24.0,0.,24.0,0.,24.0,0.,24.0
1979-07-30 18:17:42.920 ,7,1,0.,24.0,0.,24.0,0.,24.0,0.,24.0
1979-07-30 18:18:06.920 ,7,0,0.,24.0,0.,24.0,0.,24.0,0.,24.0
1979-07-30 18:18:30.920 ,6,1,0.,24.0,0.,24.0,0.,24.0,0.,24.0
1979-07-30 18:18:54.920 ,6,0,0.,24.0,0.,24.0,0.,24.0,0.,24.0
1979-07-30 18:19:18.920 ,5,1,0.,24.0,0.,24.0,0.,24.0,0.,24.0
1979-07-30 18:19:42.920 ,5,0,0.,24.0,0.,24.0,0.,24.0,0.,24.0
1979-07-30 18:20:06.920 ,4,1,0.,24.0,0.,24.0,0.,24.0,0.,24.0
1979-07-30 18:20:30.920 ,4,0,0.,24.0,0.,24.0,0.,24.0,0.,24.0
1979-07-30 18:20:54.920 ,3,1,0.,24.0,0.,24.0,0.,24.0,0.,24.0
1979-07-30 18:21:18.920 ,3,0,1.,24.0,0.,24.0,0.,24.0,0.,24.0
1979-07-30 18:21:42.920 ,2,1,0.,24.0,0.,24.0,0.,24.0,0.,24.0
1979-07-30 18:22:06.920 ,2,0,0.,24.0,0.,24.0,0.,24.0,0.,24.0
1979-07-30 18:22:30.920 ,1,1,0.,24.0,0.,24.0,0.,24.0,0.,24.0
1979-07-30 18:22:54.920 ,1,0,0.,24.0,0.,24.0,0.,24.0,0.,24.0
1979-07-30 18:23:18.920 ,0,1,1.,24.0,0.,24.0,0.,24.0,0.,24.0
1979-07-30 18:23:42.920 ,0,0,0.,24.0,0.,24.0,0.,24.0,0.,24.0
1979-07-30 18:24:06.920 ,0,1,0.,24.0,0.,24.0,0.,24.0,0.,24.0
1979-07-30 18:24:30.920 ,0,0,0.,24.0,0.,24.0,0.,24.0,0.,24.0
1979-07-30 18:24:54.920 ,1,1,0.,24.0,0.,24.0,0.,24.0,0.,24.0
1979-07-30 18:25:18.920 ,1,0,0.,24.0,0.,24.0,0.,24.0,0.,24.0
1979-07-30 18:25:42.920 ,2,1,0.,24.0,0.,24.0,0.,24.0,0.,24.0
1979-07-30 18:26:06.920 ,2,0,0.,24.0,0.,24.0,0.,24.0,0.,24.0
1979-07-30 18:26:30.920 ,3,1,0.,24.0,0.,24.0,0.,24.0,0.,24.0
1979-07-30 18:26:54.920 ,3,0,0.,24.0,0.,24.0,0.,24.0,0.,24.0
1979-07-30 18:27:18.920 ,4,1,0.,24.0,0.,24.0,0.,24.0,0.,24.0
1979-07-30 18:27:42.920 ,4,0,0.,24.0,0.,24.0,0.,24.0,0.,24.0
1979-07-30 18:28:06.920 ,5,1,0.,24.0,0.,24.0,0.,24.0,0.,24.0
1979-07-30 18:28:30.920 ,5,0,0.,24.0,0.,24.0,0.,24.0,0.,24.0
1979-07-30 18:28:54.920 ,6,1,0.,24.0,0.,24.0,0.,24.0,0.,24.0
1979-07-30 18:29:18.920 ,6,0,0.,24.0,0.,24.0,0.,24.0,0.,24.0
1979-07-30 18:29:42.920 ,7,1,0.,24.0,0.,24.0,0.,24.0,0.,24.0
1979-07-30 18:30:06.920 ,7,0,0.,24.0,0.,24.0,0.,24.0,0.,24.0
1979-07-30 18:30:30.920 ,7,1,0.,24.0,0.,24.0,0.,24.0,0.,24.0
1979-07-30 18:30:54.920 ,7,0,0.,24.0,0.,24.0,0.,24.0,0.,24.0
1979-07-30 18:31:18.920 ,6,1,0.,24.0,0.,24.0,0.,24.0,0.,24.0
1979-07-30 18:31:42.920 ,6,0,0.,24.0,0.,24.0,0.,24.0,0.,24.0
1979-07-30 18:32:06.920 ,5,1,0.,24.0,0.,24.0,0.,24.0,0.,24.0
1979-07-30 18:32:30.920 ,5,0,0.,24.0,0.,24.0,0.,24.0,0.,24.0
1979-07-30 18:32:54.920 ,4,1,0.,24.0,0.,24.0,0.,24.0,0.,24.0
1979-07-30 18:33:18.920 ,4,0,0.,24.0,0.,24.0,0.,24.0,0.,24.0
1979-07-30 18:33:42.920 ,3,1,0.,24.0,0.,24.0,0.,24.0,0.,24.0
1979-07-30 18:34:06.920 ,3,0,0.,24.0,0.,24.0,0.,24.0,0.,24.0
1979-07-30 18:34:30.920 ,2,1,0.,24.0,0.,24.0,0.,24.0,0.,24.0
1979-07-30 18:34:54.920 ,2,0,0.,24.0,0.,24.0,0.,24.0,0.,24.0
1979-07-30 18:35:18.920 ,1,1,0.,24.0,0.,24.0,0.,24.0,0.,24.0
1979-07-30 18:35:42.920 ,1,0,0.,24.0,0.,24.0,0.,24.0,0.,24.0
1979-07-30 18:36:06.920 ,0,1,0.,24.0,0.,24.0,0.,24.0,0.,24.0
1979-07-30 18:36:30.920 ,0,0,0.,24.0,0.,24.0,0.,24.0,0.,24.0
1979-07-30 18:36:54.920 ,0,1,1.,24.0,0.,24.0,0.,24.0,0.,24.0
1979-07-30 18:37:18.920 ,0,0,0.,24.0,0.,24.0,0.,24.0,0.,24.0
1979-07-30 18:37:42.920 ,1,1,0.,24.0,0.,24.0,0.,24.0,0.,24.0
1979-07-30 18:38:06.920 ,1,0,0.,24.0,0.,24.0,0.,24.0,0.,24.0
1979-07-30 18:38:30.920 ,2,1,0.,24.0,0.,24.0,0.,24.0,0.,24.0
1979-07-30 18:38:54.920 ,2,0,0.,24.0,0.,24.0,0.,24.0,0.,24.0
1979-07-30 18:39:18.920 ,3,1,0.,24.0,0.,24.0,0.,24.0,0.,24.0
1979-07-30 18:39:42.920 ,3,0,0.,24.0,0.,24.0,0.,24.0,0.,24.0
1979-07-30 18:40:06.920 ,4,1,0.,24.0,0.,24.0,0.,24.0,0.,24.0
1979-07-30 18:40:30.920 ,4,0,0.,24.0,0.,24.0,0.,24.0,0.,24.0
1979-07-30 18:40:54.920 ,5,1,1.,24.0,0.,24.0,0.,24.0,0.,24.0
1979-07-30 18:41:18.920 ,5,0,0.,24.0,0.,24.0,0.,24.0,0.,24.0
1979-07-30 18:41:42.920 ,6,1,0.,24.0,0.,24.0,0.,24.0,0.,24.0
1979-07-30 18:42:06.920 ,6,0,0.,24.0,0.,24.0,0.,24.0,0.,24.0
1979-07-30 18:42:30.920 ,7,0,0.,24.0,0.,24.0,0.,24.0,0.,24.0
1979-07-30 18:42:54.920 ,7,0,0.,24.0,0.,24.0,0.,24.0,0.,24.0
1979-07-30 18:43:18.920 ,5,1,0.,24.0,0.,24.0,0.,24.0,0.,24.0
1979-07-30 18:43:42.920 ,1,1,0.,24.0,0.,24.0,0.,24.0,0.,24.0
1979-07-30 18:44:06.920 ,2,1,0.,24.0,0.,24.0,0.,24.0,0.,24.0
1979-07-30 18:44:30.920 ,6,1,0.,24.0,0.,24.0,0.,24.0,0.,24.0
1979-07-30 18:44:54.920 ,5,1,0.,24.0,0.,24.0,0.,24.0,0.,24.0
1979-07-30 18:45:18.920 ,1,1,0.,24.0,0.,24.0,0.,24.0,0.,24.0
1979-07-30 18:45:42.920 ,2,1,0.,24.0,0.,24.0,0.,24.0,0.,24.0
1979-07-30 18:46:06.920 ,6,1,0.,24.0,0.,24.0,0.,24.0,0.,24.0
1979-07-30 18:46:30.920 ,5,1,0.,24.0,0.,24.0,0.,24.0,0.,24.0
1979-07-30 18:46:54.920 ,1,1,0.,24.0,0.,24.0,0.,24.0,0.,24.0
1979-07-30 18:47:18.920 ,2,1,0.,24.0,0.,24.0,0.,24.0,0.,24.0
1979-07-30 18:47:42.920 ,6,1,0.,24.0,0.,24.0,0.,24.0,0.,24.0
1979-07-30 18:48:06.920 ,5,1,0.,24.0,0.,24.0,0.,24.0,0.,24.0
1979-07-30 18:48:30.920 ,1,1,0.,24.0,0.,24.0,0.,24.0,0.,24.0
1979-07-30 18:48:54.920 ,2,1,0.,24.0,0.,24.0,0.,24.0,0.,24.0
1979-07-30 18:49:18.920 ,6,1,0.,24.0,0.,24.0,0.,24.0,0.,24.0
1979-07-30 18:49:42.920 ,5,1,0.,24.0,0.,24.0,0.,24.0,0.,24.0
1979-07-30 18:50:06.920 ,1,1,0.,24.0,0.,24.0,0.,24.0,0.,24.0
1979-07-30 18:50:30.920 ,2,1,0.,24.0,0.,24.0,0.,24.0,0.,24.0
1979-07-30 18:50:54.920 ,6,1,1.,24.0,0.,24.0,0.,24.0,0.,24.0
1979-07-30 18:51:18.920 ,5,1,0.,24.0,0.,24.0,0.,24.0,0.,24.0
1979-07-30 18:51:42.920 ,1,1,0.,24.0,0.,24.0,0.,24.0,0.,24.0
1979-07-30 18:52:06.920 ,2,1,0.,24.0,0.,24.0,0.,24.0,0.,24.0
1979-07-30 18:52:30.920 ,6,1,0.,24.0,0.,24.0,0.,24.0,0.,24.0
1979-07-30 18:52:54.920 ,5,1,0.,24.0,0.,24.0,0.,24.0,0.,24.0
1979-07-30 18:53:18.920 ,1,1,0.,24.0,0.,24.0,0.,24.0,0.,24.0
1979-07-30 18:53:42.920 ,0,0,0.,24.0,0.,24.0,0.,24.0,0.,24.0
1979-07-30 18:54:06.920 ,0,0,0.,24.0,0.,24.0,0.,24.0,0.,24.0
1979-07-30 18:54:30.920 ,5,1,0.,24.0,0.,24.0,0.,24.0,0.,24.0
1979-07-30 18:54:54.920 ,5,0,0.,24.0,0.,24.0,0.,24.0,0.,24.0
1979-07-30 18:55:18.920 ,4,1,0.,24.0,0.,24.0,0.,24.0,0.,24.0
1979-07-30 18:55:42.920 ,4,0,0.,24.0,0.,24.0,0.,24.0,0.,24.0
1979-07-30 18:56:06.920 ,3,1,0.,24.0,0.,24.0,0.,24.0,0.,24.0
1979-07-30 18:56:30.920 ,3,0,0.,24.0,0.,24.0,0.,24.0,0.,24.0
1979-07-30 18:56:54.920 ,2,1,0.,24.0,0.,24.0,0.,24.0,0.,24.0
1979-07-30 18:57:18.920 ,2,0,0.,24.0,0.,24.0,0.,24.0,0.,24.0
1979-07-30 18:57:42.920 ,1,1,0.,24.0,0.,24.0,0.,24.0,0.,24.0
1979-07-30 18:58:06.920 ,1,0,0.,24.0,0.,24.0,0.,24.0,0.,24.0
1979-07-30 18:58:30.920 ,0,1,0.,24.0,0.,24.0,0.,24.0,0.,24.0
1979-07-30 18:58:54.920 ,0,0,0.,24.0,0.,24.0,0.,24.0,0.,24.0
1979-07-30 18:59:18.920 ,0,1,0.,24.0,0.,24.0,0.,24.0,0.,24.0
1979-07-30 18:59:42.920 ,0,0,0.,24.0,0.,24.0,0.,24.0,0.,24.0
1979-07-30 19:00:06.920 ,1,1,0.,24.0,0.,24.0,0.,24.0,0.,24.0
1979-07-30 19:00:30.920 ,1,0,0.,24.0,0.,24.0,0.,24.0,0.,24.0
1979-07-30 19:00:54.920 ,2,1,0.,24.0,0.,24.0,0.,24.0,0.,24.0
1979-07-30 19:01:18.920 ,2,0,0.,24.0,0.,24.0,0.,24.0,0.,24.0
1979-07-30 19:01:42.920 ,3,1,0.,24.0,0.,24.0,0.,24.0,0.,24.0
1979-07-30 19:02:06.920 ,3,0,0.,24.0,0.,24.0,0.,24.0,0.,24.0
1979-07-30 19:02:30.920 ,4,1,0.,24.0,0.,24.0,0.,24.0,0.,24.0
1979-07-30 19:02:54.920 ,4,0,0.,24.0,0.,24.0,0.,24.0,0.,24.0
1979-07-30 19:03:18.920 ,5,1,0.,24.0,0.,24.0,0.,24.0,0.,24.0
1979-07-30 19:03:42.920 ,5,0,0.,24.0,0.,24.0,0.,24.0,0.,24.0
1979-07-30 19:04:06.920 ,6,1,0.,24.0,0.,24.0,0.,24.0,0.,24.0
1979-07-30 19:04:30.920 ,6,0,0.,24.0,0.,24.0,0.,24.0,0.,24.0
1979-07-30 19:04:54.920 ,7,1,0.,24.0,0.,24.0,0.,24.0,0.,24.0
1979-07-30 19:05:18.920 ,7,0,0.,24.0,0.,24.0,0.,24.0,0.,24.0
1979-07-30 19:05:42.920 ,7,1,0.,24.0,0.,24.0,0.,24.0,0.,24.0
1979-07-30 19:06:06.920 ,7,0,0.,24.0,0.,24.0,0.,24.0,0.,24.0
1979-07-30 19:06:30.920 ,6,1,0.,24.0,0.,24.0,0.,24.0,0.,24.0
1979-07-30 19:06:54.920 ,6,0,0.,24.0,0.,24.0,0.,24.0,0.,24.0
1979-07-30 19:07:18.920 ,5,1,0.,24.0,0.,24.0,0.,24.0,0.,24.0
1979-07-30 19:07:42.920 ,5,0,0.,24.0,0.,24.0,0.,24.0,0.,24.0
1979-07-30 19:08:06.920 ,4,1,0.,24.0,0.,24.0,0.,24.0,0.,24.0
1979-07-30 19:08:30.920 ,4,0,0.,24.0,0.,24.0,0.,24.0,0.,24.0
1979-07-30 19:08:54.920 ,3,1,0.,24.0,0.,24.0,0.,24.0,0.,24.0
1979-07-30 19:09:18.920 ,3,0,0.,24.0,0.,24.0,0.,24.0,0.,24.0
1979-07-30 19:09:42.920 ,2,1,0.,24.0,0.,24.0,0.,24.0,0.,24.0
1979-07-30 19:10:06.920 ,2,0,0.,24.0,0.,24.0,0.,24.0,0.,24.0
1979-07-30 19:10:30.920 ,1,1,0.,24.0,0.,24.0,0.,24.0,0.,24.0
1979-07-30 19:10:54.920 ,1,0,0.,24.0,0.,24.0,0.,24.0,0.,24.0
1979-07-30 19:11:18.920 ,0,1,0.,24.0,0.,24.0,0.,24.0,0.,24.0
1979-07-30 19:11:42.920 ,0,0,0.,24.0,0.,24.0,0.,24.0,0.,24.0
1979-07-30 19:12:06.920 ,0,1,0.,24.0,0.,24.0,0.,24.0,0.,24.0
1979-07-30 19:12:30.920 ,0,0,0.,24.0,0.,24.0,0.,24.0,0.,24.0
1979-07-30 19:12:54.920 ,1,1,0.,24.0,0.,24.0,0.,24.0,0.,24.0
1979-07-30 19:13:18.920 ,1,0,0.,24.0,0.,24.0,0.,24.0,0.,24.0
1979-07-30 19:13:42.920 ,2,1,0.,24.0,0.,24.0,0.,24.0,0.,24.0
1979-07-30 19:14:06.920 ,2,0,0.,24.0,0.,24.0,0.,24.0,0.,24.0
1979-07-30 19:14:30.920 ,3,1,0.,24.0,0.,24.0,0.,24.0,0.,24.0
1979-07-30 19:14:54.920 ,3,0,0.,24.0,0.,24.0,0.,24.0,0.,24.0
1979-07-30 19:15:18.920 ,4,1,0.,24.0,0.,24.0,0.,24.0,0.,24.0
1979-07-30 19:15:42.920 ,4,0,0.,24.0,0.,24.0,0.,24.0,0.,24.0
1979-07-30 19:16:06.920 ,5,1,0.,24.0,0.,24.0,0.,24.0,0.,24.0
1979-07-30 19:16:30.920 ,5,0,0.,24.0,0.,24.0,0.,24.0,0.,24.0
1979-07-30 19:16:54.920 ,6,1,0.,24.0,0.,24.0,0.,24.0,0.,24.0
1979-07-30 19:17:18.920 ,6,0,0.,24.0,0.,24.0,0.,24.0,0.,24.0
1979-07-30 19:17:42.920 ,7,1,0.,24.0,0.,24.0,0.,24.0,0.,24.0
1979-07-30 19:18:06.920 ,7,0,0.,24.0,0.,24.0,0.,24.0,0.,24.0
1979-07-30 19:18:30.920 ,7,1,0.,24.0,0.,24.0,0.,24.0,0.,24.0
1979-07-30 19:18:54.920 ,7,0,0.,24.0,0.,24.0,0.,24.0,0.,24.0
1979-07-30 19:19:18.920 ,6,1,0.,24.0,0.,24.0,0.,24.0,0.,24.0
1979-07-30 19:19:42.920 ,6,0,0.,24.0,0.,24.0,0.,24.0,0.,24.0
1979-07-30 19:20:06.920 ,5,1,0.,24.0,0.,24.0,0.,24.0,0.,24.0
1979-07-30 19:20:30.920 ,5,0,0.,24.0,0.,24.0,0.,24.0,0.,24.0
1979-07-30 19:20:54.920 ,4,1,0.,24.0,0.,24.0,0.,24.0,0.,24.0
1979-07-30 19:21:18.920 ,4,0,0.,24.0,0.,24.0,0.,24.0,0.,24.0
1979-07-30 19:21:42.920 ,3,1,1.,24.0,0.,24.0,0.,24.0,0.,24.0
1979-07-30 19:22:06.920 ,3,0,0.,24.0,0.,24.0,0.,24.0,0.,24.0
1979-07-30 19:22:30.920 ,2,1,0.,24.0,0.,24.0,0.,24.0,0.,24.0
1979-07-30 19:22:54.920 ,2,0,0.,24.0,0.,24.0,0.,24.0,0.,24.0
1979-07-30 19:23:18.920 ,1,1,0.,24.0,0.,24.0,0.,24.0,0.,24.0
1979-07-30 19:23:42.920 ,1,0,0.,24.0,0.,24.0,0.,24.0,0.,24.0
1979-07-30 19:24:06.920 ,0,1,0.,24.0,0.,24.0,0.,24.0,0.,24.0
1979-07-30 19:24:30.920 ,0,0,0.,24.0,0.,24.0,0.,24.0,0.,24.0
1979-07-30 19:24:54.920 ,0,1,0.,24.0,0.,24.0,0.,24.0,0.,24.0
1979-07-30 19:25:18.920 ,0,0,0.,24.0,0.,24.0,0.,24.0,0.,24.0
1979-07-30 19:25:42.920 ,1,1,0.,24.0,0.,24.0,0.,24.0,0.,24.0
1979-07-30 19:26:06.920 ,1,0,0.,24.0,0.,24.0,0.,24.0,0.,24.0
1979-07-30 19:26:30.920 ,2,1,0.,24.0,0.,24.0,0.,24.0,0.,24.0
1979-07-30 19:26:54.920 ,2,0,0.,24.0,0.,24.0,0.,24.0,0.,24.0
1979-07-30 19:27:18.920 ,3,1,0.,24.0,0.,24.0,0.,24.0,0.,24.0
1979-07-30 19:27:42.920 ,3,0,0.,24.0,0.,24.0,0.,24.0,0.,24.0
1979-07-30 19:28:06.920 ,4,1,0.,24.0,0.,24.0,0.,24.0,0.,24.0
1979-07-30 19:28:30.920 ,4,0,0.,24.0,0.,24.0,0.,24.0,0.,24.0
1979-07-30 19:28:54.920 ,5,1,0.,24.0,0.,24.0,0.,24.0,0.,24.0
1979-07-30 19:29:18.920 ,5,0,0.,24.0,0.,24.0,0.,24.0,0.,24.0
1979-07-30 19:29:42.920 ,6,1,0.,24.0,0.,24.0,0.,24.0,0.,24.0
1979-07-30 19:30:06.920 ,6,0,0.,24.0,0.,24.0,0.,24.0,0.,24.0
1979-07-30 19:30:30.910 ,7,0,0.,24.0,0.,24.0,0.,24.0,0.,24.0
1979-07-30 19:30:54.910 ,7,0,0.,24.0,0.,24.0,0.,24.0,0.,24.0
1979-07-30 19:31:18.910 ,5,1,0.,24.0,0.,24.0,0.,24.0,0.,24.0
1979-07-30 19:31:42.910 ,1,1,0.,24.0,0.,24.0,0.,24.0,0.,24.0
1979-07-30 19:32:06.910 ,2,1,0.,24.0,0.,24.0,0.,24.0,0.,24.0
1979-07-30 19:32:30.910 ,6,1,0.,24.0,0.,24.0,0.,24.0,0.,24.0
1979-07-30 19:32:54.910 ,5,1,0.,24.0,0.,24.0,0.,24.0,0.,24.0
1979-07-30 19:33:18.910 ,1,1,0.,24.0,0.,24.0,0.,24.0,0.,24.0
1979-07-30 19:33:42.910 ,2,1,0.,24.0,0.,24.0,0.,24.0,0.,24.0
1979-07-30 19:34:06.910 ,6,1,0.,24.0,0.,24.0,0.,24.0,0.,24.0
1979-07-30 19:34:30.910 ,5,1,0.,24.0,0.,24.0,0.,24.0,0.,24.0
1979-07-30 19:34:54.910 ,1,1,0.,24.0,0.,24.0,0.,24.0,0.,24.0
1979-07-30 19:35:18.910 ,2,1,0.,24.0,0.,24.0,0.,24.0,0.,24.0
1979-07-30 19:35:42.910 ,6,1,0.,24.0,0.,24.0,0.,24.0,0.,24.0
1979-07-30 19:36:06.910 ,5,1,0.,24.0,0.,24.0,0.,24.0,0.,24.0
1979-07-30 19:36:30.910 ,1,1,0.,24.0,0.,24.0,0.,24.0,0.,24.0
1979-07-30 19:36:54.910 ,2,1,1.,24.0,0.,24.0,0.,24.0,0.,24.0
1979-07-30 19:37:18.910 ,6,1,0.,24.0,0.,24.0,0.,24.0,0.,24.0
1979-07-30 19:37:42.910 ,5,1,0.,24.0,0.,24.0,0.,24.0,0.,24.0
1979-07-30 19:38:06.910 ,1,1,0.,24.0,0.,24.0,0.,24.0,0.,24.0
1979-07-30 19:38:30.910 ,2,1,0.,24.0,0.,24.0,0.,24.0,0.,24.0
1979-07-30 19:38:54.910 ,6,1,0.,24.0,0.,24.0,0.,24.0,0.,24.0
1979-07-30 19:39:18.910 ,5,1,0.,24.0,0.,24.0,0.,24.0,0.,24.0
1979-07-30 19:39:42.910 ,1,1,0.,24.0,0.,24.0,0.,24.0,0.,24.0
1979-07-30 19:40:06.910 ,2,1,0.,24.0,0.,24.0,0.,24.0,0.,24.0
1979-07-30 19:40:30.910 ,6,1,0.,24.0,0.,24.0,0.,24.0,0.,24.0
1979-07-30 19:40:54.910 ,5,1,0.,24.0,0.,24.0,0.,24.0,0.,24.0
1979-07-30 19:41:18.910 ,1,1,0.,24.0,0.,24.0,0.,24.0,0.,24.0
1979-07-30 19:41:42.910 ,0,0,0.,24.0,0.,24.0,0.,24.0,0.,24.0
1979-07-30 19:42:06.910 ,0,0,0.,24.0,0.,24.0,0.,24.0,0.,24.0
1979-07-30 19:42:30.910 ,5,1,0.,24.0,0.,24.0,0.,24.0,0.,24.0
1979-07-30 19:42:54.910 ,5,0,0.,24.0,0.,24.0,0.,24.0,0.,24.0
1979-07-30 19:43:18.910 ,4,1,0.,24.0,0.,24.0,0.,24.0,0.,24.0
1979-07-30 19:43:42.910 ,4,0,0.,24.0,0.,24.0,0.,24.0,0.,24.0
1979-07-30 19:44:06.910 ,3,1,0.,24.0,0.,24.0,0.,24.0,0.,24.0
1979-07-30 19:44:30.910 ,3,0,0.,24.0,0.,24.0,0.,24.0,0.,24.0
1979-07-30 19:44:54.910 ,2,1,0.,24.0,0.,24.0,0.,24.0,0.,24.0
1979-07-30 19:45:18.910 ,2,0,0.,24.0,0.,24.0,0.,24.0,0.,24.0
1979-07-30 19:45:42.910 ,1,1,0.,24.0,0.,24.0,0.,24.0,0.,24.0
1979-07-30 19:46:06.910 ,1,0,0.,24.0,0.,24.0,0.,24.0,0.,24.0
1979-07-30 19:46:30.910 ,0,1,0.,24.0,0.,24.0,0.,24.0,0.,24.0
1979-07-30 19:46:54.910 ,0,0,0.,24.0,0.,24.0,0.,24.0,0.,24.0
1979-07-30 19:47:18.910 ,0,1,0.,24.0,0.,24.0,0.,24.0,0.,24.0
1979-07-30 19:47:42.910 ,0,0,0.,24.0,0.,24.0,0.,24.0,0.,24.0
1979-07-30 19:48:06.910 ,1,1,0.,24.0,0.,24.0,0.,24.0,0.,24.0
1979-07-30 19:48:30.910 ,1,0,0.,24.0,0.,24.0,0.,24.0,0.,24.0
1979-07-30 19:48:54.910 ,2,1,0.,24.0,0.,24.0,0.,24.0,0.,24.0
1979-07-30 19:49:18.910 ,2,0,0.,24.0,0.,24.0,0.,24.0,0.,24.0
1979-07-30 19:49:42.910 ,3,1,0.,24.0,0.,24.0,0.,24.0,0.,24.0
1979-07-30 19:50:06.910 ,3,0,0.,24.0,0.,24.0,0.,24.0,0.,24.0
1979-07-30 19:50:30.910 ,4,1,0.,24.0,0.,24.0,0.,24.0,0.,24.0
1979-07-30 19:50:54.910 ,4,0,0.,24.0,0.,24.0,0.,24.0,0.,24.0
1979-07-30 19:51:18.910 ,5,1,0.,24.0,0.,24.0,0.,24.0,0.,24.0
1979-07-30 19:51:42.910 ,5,0,0.,24.0,0.,24.0,0.,24.0,0.,24.0
1979-07-30 19:52:06.910 ,6,1,0.,24.0,0.,24.0,0.,24.0,0.,24.0
1979-07-30 19:52:30.910 ,6,0,0.,24.0,0.,24.0,0.,24.0,0.,24.0
1979-07-30 19:52:54.910 ,7,1,0.,24.0,0.,24.0,0.,24.0,0.,24.0
1979-07-30 19:53:18.910 ,0,0,0.,24.0,0.,24.0,0.,24.0,0.,24.0
1979-07-30 19:53:59.110 ,0,0,,0,,0,,0,,0
1979-07-30 19:54:06.910 ,0,0,0.,24.0,0.,24.0,0.,24.0,0.,24.0
1979-07-30 19:54:30.910 ,6,1,0.,24.0,0.,24.0,0.,24.0,0.,24.0
1979-07-30 19:54:54.910 ,6,0,0.,24.0,0.,24.0,0.,24.0,0.,24.0
1979-07-30 19:55:18.910 ,5,1,0.,24.0,0.,24.0,0.,24.0,0.,24.0
1979-07-30 19:55:42.910 ,5,0,0.,24.0,0.,24.0,0.,24.0,0.,24.0
1979-07-30 19:56:06.910 ,4,1,0.,24.0,0.,24.0,0.,24.0,0.,24.0
1979-07-30 19:56:30.910 ,4,0,0.,24.0,0.,24.0,0.,24.0,1.,24.0
1979-07-30 19:56:54.910 ,3,1,0.,24.0,0.,24.0,0.,24.0,0.,24.0
1979-07-30 19:57:18.910 ,3,0,0.,24.0,0.,24.0,0.,24.0,0.,24.0
1979-07-30 19:57:42.910 ,2,1,0.,24.0,0.,24.0,0.,24.0,0.,24.0
1979-07-30 19:58:06.910 ,2,0,0.,24.0,0.,24.0,0.,24.0,0.,24.0
1979-07-30 19:58:30.910 ,1,1,0.,24.0,0.,24.0,0.,24.0,0.,24.0
1979-07-30 19:58:54.910 ,1,0,0.,24.0,0.,24.0,0.,24.0,0.,24.0
1979-07-30 19:59:18.910 ,0,1,0.,24.0,0.,24.0,0.,24.0,0.,24.0
1979-07-30 19:59:42.910 ,0,0,0.,24.0,0.,24.0,0.,24.0,0.,24.0
1979-07-30 20:00:06.910 ,0,1,0.,24.0,0.,24.0,0.,24.0,0.,24.0
1979-07-30 20:00:30.910 ,0,0,0.,24.0,0.,24.0,0.,24.0,0.,24.0
1979-07-30 20:00:54.910 ,1,1,0.,24.0,0.,24.0,0.,24.0,0.,24.0
1979-07-30 20:01:18.910 ,1,0,0.,24.0,0.,24.0,0.,24.0,0.,24.0
1979-07-30 20:01:42.910 ,2,1,0.,24.0,0.,24.0,0.,24.0,0.,24.0
1979-07-30 20:02:06.910 ,2,0,0.,24.0,0.,24.0,0.,24.0,0.,24.0
1979-07-30 20:02:30.910 ,3,1,0.,24.0,0.,24.0,0.,24.0,0.,24.0
1979-07-30 20:02:54.910 ,3,0,0.,24.0,0.,24.0,0.,24.0,0.,24.0
1979-07-30 20:03:18.910 ,4,1,0.,24.0,0.,24.0,0.,24.0,0.,24.0
1979-07-30 20:03:42.910 ,4,0,0.,24.0,0.,24.0,0.,24.0,0.,24.0
1979-07-30 20:04:06.910 ,5,1,0.,24.0,0.,24.0,0.,24.0,0.,24.0
1979-07-30 20:04:30.910 ,5,0,0.,24.0,0.,24.0,0.,24.0,0.,24.0
1979-07-30 20:04:54.910 ,6,1,0.,24.0,0.,24.0,0.,24.0,0.,24.0
1979-07-30 20:05:18.910 ,6,0,0.,24.0,0.,24.0,0.,24.0,0.,24.0
1979-07-30 20:05:42.910 ,7,1,0.,24.0,0.,24.0,0.,24.0,0.,24.0
1979-07-30 20:06:06.910 ,7,0,0.,24.0,0.,24.0,0.,24.0,0.,24.0
1979-07-30 20:06:30.910 ,7,1,0.,24.0,0.,24.0,0.,24.0,0.,24.0
1979-07-30 20:06:54.910 ,7,0,0.,24.0,0.,24.0,0.,24.0,0.,24.0
1979-07-30 20:07:18.910 ,6,1,0.,24.0,0.,24.0,0.,24.0,0.,24.0
1979-07-30 20:07:42.910 ,6,0,0.,24.0,0.,24.0,0.,24.0,0.,24.0
1979-07-30 20:08:06.910 ,5,1,0.,24.0,0.,24.0,0.,24.0,0.,24.0
1979-07-30 20:08:30.910 ,5,0,0.,24.0,0.,24.0,0.,24.0,0.,24.0
1979-07-30 20:08:54.910 ,4,1,0.,24.0,0.,24.0,0.,24.0,0.,24.0
1979-07-30 20:09:18.910 ,4,0,0.,24.0,0.,24.0,0.,24.0,0.,24.0
1979-07-30 20:09:42.910 ,3,1,0.,24.0,0.,24.0,0.,24.0,0.,24.0
1979-07-30 20:10:06.910 ,3,0,0.,24.0,0.,24.0,0.,24.0,0.,24.0
1979-07-30 20:10:30.910 ,2,1,0.,24.0,0.,24.0,0.,24.0,0.,24.0
1979-07-30 20:10:54.910 ,2,0,0.,24.0,0.,24.0,0.,24.0,0.,24.0
1979-07-30 20:11:18.910 ,1,1,1.,24.0,0.,24.0,0.,24.0,0.,24.0
1979-07-30 20:11:42.910 ,1,0,0.,24.0,0.,24.0,0.,24.0,0.,24.0
1979-07-30 20:12:06.910 ,0,1,0.,24.0,0.,24.0,0.,24.0,0.,24.0
1979-07-30 20:12:30.910 ,0,0,0.,24.0,0.,24.0,0.,24.0,0.,24.0
1979-07-30 20:12:54.910 ,0,1,0.,24.0,0.,24.0,0.,24.0,0.,24.0
1979-07-30 20:13:18.910 ,0,0,0.,24.0,0.,24.0,0.,24.0,0.,24.0
1979-07-30 20:13:42.910 ,1,1,0.,24.0,0.,24.0,0.,24.0,0.,24.0
1979-07-30 20:14:06.910 ,1,0,0.,24.0,0.,24.0,0.,24.0,0.,24.0
1979-07-30 20:14:30.910 ,2,1,0.,24.0,0.,24.0,0.,24.0,0.,24.0
1979-07-30 20:14:54.910 ,2,0,0.,24.0,0.,24.0,0.,24.0,0.,24.0
1979-07-30 20:15:18.910 ,3,1,0.,24.0,0.,24.0,0.,24.0,0.,24.0
1979-07-30 20:15:42.910 ,3,0,0.,24.0,0.,24.0,0.,24.0,0.,24.0
1979-07-30 20:16:06.910 ,4,1,0.,24.0,0.,24.0,0.,24.0,0.,24.0
1979-07-30 20:16:30.910 ,4,0,0.,24.0,0.,24.0,0.,24.0,0.,24.0
1979-07-30 20:16:54.910 ,5,1,0.,24.0,0.,24.0,0.,24.0,0.,24.0
1979-07-30 20:17:18.910 ,5,0,0.,24.0,0.,24.0,0.,24.0,0.,24.0
1979-07-30 20:17:42.910 ,6,1,0.,24.0,0.,24.0,0.,24.0,0.,24.0
1979-07-30 20:18:06.910 ,6,0,0.,24.0,0.,24.0,0.,24.0,0.,24.0
1979-07-30 20:18:30.910 ,7,0,0.,24.0,0.,24.0,0.,24.0,0.,24.0
1979-07-30 20:18:54.910 ,7,0,0.,24.0,0.,24.0,0.,24.0,0.,24.0
1979-07-30 20:19:18.910 ,5,1,0.,24.0,0.,24.0,0.,24.0,0.,24.0
1979-07-30 20:19:42.910 ,1,1,0.,24.0,0.,24.0,0.,24.0,0.,24.0
1979-07-30 20:20:06.910 ,2,1,0.,24.0,0.,24.0,0.,24.0,0.,24.0
1979-07-30 20:20:30.910 ,6,1,0.,24.0,0.,24.0,0.,24.0,0.,24.0
1979-07-30 20:20:54.910 ,5,1,0.,24.0,0.,24.0,0.,24.0,0.,24.0
1979-07-30 20:21:18.910 ,1,1,0.,24.0,0.,24.0,0.,24.0,0.,24.0
1979-07-30 20:21:42.910 ,2,1,1.,24.0,0.,24.0,0.,24.0,0.,24.0
1979-07-30 20:22:06.910 ,6,1,0.,24.0,0.,24.0,0.,24.0,0.,24.0
1979-07-30 20:22:30.910 ,5,1,0.,24.0,0.,24.0,0.,24.0,0.,24.0
1979-07-30 20:22:54.910 ,1,1,0.,24.0,0.,24.0,0.,24.0,0.,24.0
1979-07-30 20:23:18.910 ,2,1,0.,24.0,0.,24.0,0.,24.0,0.,24.0
1979-07-30 20:23:42.910 ,6,1,0.,24.0,0.,24.0,0.,24.0,0.,24.0
1979-07-30 20:24:06.910 ,5,1,0.,24.0,0.,24.0,0.,24.0,0.,24.0
1979-07-30 20:24:30.910 ,1,1,0.,24.0,0.,24.0,0.,24.0,0.,24.0
1979-07-30 20:24:54.910 ,2,1,0.,24.0,0.,24.0,0.,24.0,0.,24.0
1979-07-30 20:25:18.910 ,6,1,0.,24.0,0.,24.0,0.,24.0,0.,24.0
1979-07-30 20:25:42.910 ,5,1,0.,24.0,0.,24.0,0.,24.0,0.,24.0
1979-07-30 20:26:06.910 ,1,1,0.,24.0,0.,24.0,0.,24.0,0.,24.0
1979-07-30 20:26:30.910 ,2,1,0.,24.0,0.,24.0,0.,24.0,0.,24.0
1979-07-30 20:26:54.910 ,6,1,0.,24.0,0.,24.0,0.,24.0,0.,24.0
1979-07-30 20:27:18.910 ,5,1,0.,24.0,0.,24.0,0.,24.0,0.,24.0
1979-07-30 20:27:42.910 ,1,1,0.,24.0,0.,24.0,0.,24.0,0.,24.0
1979-07-30 20:28:06.910 ,2,1,1.,24.0,0.,24.0,0.,24.0,0.,24.0
1979-07-30 20:28:30.910 ,6,1,0.,24.0,0.,24.0,0.,24.0,0.,24.0
1979-07-30 20:28:54.910 ,5,1,0.,24.0,0.,24.0,0.,24.0,0.,24.0
1979-07-30 20:29:18.910 ,1,1,0.,24.0,0.,24.0,0.,24.0,0.,24.0
1979-07-30 20:29:42.910 ,0,0,0.,24.0,0.,24.0,0.,24.0,0.,24.0
1979-07-30 20:30:06.910 ,0,0,0.,24.0,0.,24.0,0.,24.0,0.,24.0
1979-07-30 20:30:30.910 ,5,1,0.,24.0,0.,24.0,0.,24.0,0.,24.0
1979-07-30 20:30:54.910 ,5,0,0.,24.0,0.,24.0,0.,24.0,0.,24.0
1979-07-30 20:31:18.910 ,4,1,0.,24.0,0.,24.0,0.,24.0,0.,24.0
1979-07-30 20:31:42.910 ,4,0,0.,24.0,0.,24.0,0.,24.0,0.,24.0
1979-07-30 20:32:06.910 ,3,1,0.,24.0,0.,24.0,0.,24.0,0.,24.0
1979-07-30 20:32:30.910 ,3,0,0.,24.0,0.,24.0,0.,24.0,0.,24.0
1979-07-30 20:32:54.910 ,2,1,0.,24.0,0.,24.0,0.,24.0,0.,24.0
1979-07-30 20:33:18.910 ,2,0,0.,24.0,0.,24.0,0.,24.0,0.,24.0
1979-07-30 20:33:42.910 ,1,1,0.,24.0,0.,24.0,0.,24.0,0.,24.0
1979-07-30 20:34:06.910 ,1,0,0.,24.0,0.,24.0,0.,24.0,0.,24.0
1979-07-30 20:34:30.910 ,0,1,0.,24.0,0.,24.0,0.,24.0,0.,24.0